Location: Seven Kings
(51.5667°N, 0.1000°E)
Time: 02:20:58
(UTC+00:00)

Cosmos 1892 - Pass Details

Date: 29 October 2020
Orbit: 504 x 523 km, 82.5° (Epoch: 27 November)

Event Time Altitude Azimuth Distance (km) Brightness Sun altitude
Rises 18:28:13 0° 345° (NNW) 2,668 6.5 -17.7°
Reaches altitude 10° 18:30:24 10° 340° (NNW) 1,776 5.7 -18.1°
Maximum altitude 18:34:10 49° 265° (W) 686 3.7 -18.6°
Drops below altitude 10° 18:37:55 10° 190° (S) 1,762 5.5 -19.2°
Sets 18:40:05 0° 185° (S) 2,645 6.3 -19.6°
